Location: Unspecified
(43.1763°N, 79.4719°W)
Time: 12:39:47
(UTC-04:00)

CZ-3 Stage 3 - Visible Passes

Search period start: 19 June 2018 00:00
Search period end: 29 June 2018 00:00
Orbit: 407 x 34788 km, 30.8° (Epoch: 18 June)

Date Brightness Start Highest point End Pass type
(mag) Time Alt. Az. Time Alt. Az. Time Alt. Az.
19 Jun 8.9 22:19:09 10° ESE 02:22:32 39° ESE 03:29:44 10° E visible
21 Jun 6.5 02:17:39 10° SSW 04:48:40 23° SW 10:40:58 10° SE visible
21 Jun 8.3 22:38:12 10° SSE 06:36:38 66° S 07:04:50 10° E visible
22 Jun 8.8 22:04:25 10° ESE 02:11:41 40° ESE 03:20:01 10° E visible
24 Jun 6.5 02:05:12 10° SSW 04:37:22 23° SW 10:31:13 10° SE visible
24 Jun 8.3 22:25:32 10° SSE 06:26:22 66° S 06:55:05 10° E visible
25 Jun 8.8 21:49:43 10° ESE 02:00:45 40° ESE 03:10:15 10° E visible
27 Jun 6.6 01:52:51 10° SSW 04:26:02 24° SW 10:21:25 10° SE visible
27 Jun 8.2 22:12:57 10° SSE 06:16:03 67° S 06:45:18 10° E visible
